Location: Jonesport
(44.5330°N, 67.5990°W)
Time: 17:02:34
(UTC-04:00)

Iridium 35 - Visible Passes

Search period start: 24 April 2017 00:00
Search period end: 04 May 2017 00:00
Orbit: 776 x 779 km, 86.4° (Epoch: 23 April)

Date Brightness Start Highest point End Pass type
(mag) Time Alt. Az. Time Alt. Az. Time Alt. Az.
24 Apr 5.8 19:51:44 10° NNE 19:56:24 32° ENE 20:01:02 10° SE visible
24 Apr 6.7 21:32:29 10° NNW 21:37:04 32° W 21:41:38 10° SW visible
25 Apr 5.6 20:58:35 10° N 21:03:42 57° W 21:08:48 10° SSW visible
26 Apr 5.0 20:24:57 10° N 20:30:13 81° E 20:35:26 10° S visible
26 Apr 7.8 22:07:52 10° NW 22:10:10 13° WNW 22:12:28 10° WSW visible
27 Apr 7.3 21:32:58 10° NNW 21:37:00 23° W 21:41:01 10° SW visible
28 Apr 6.4 20:58:51 10° NNW 21:03:42 40° W 21:08:32 10° SSW visible
29 Apr 5.3 20:25:04 10° N 20:30:18 72° W 20:35:29 10° S visible
30 Apr 7.7 21:33:42 10° NW 21:36:53 16° WNW 21:40:02 10° WSW visible
01 May 7.0 20:59:14 10° NNW 21:03:40 29° W 21:08:04 10° SW visible
02 May 6.0 20:25:16 10° NNW 20:30:19 50° W 20:35:20 10° SSW visible
03 May 8.0 21:35:06 10° NW 21:36:42 11° WNW 21:38:19 10° W visible
